Location: *
(32.3758°S, 63.1185°E)
Time: 00:28:38
(UTC+00:00)

Cosmos 1709 Rocket - Pass Details

Date: 02 June 2023
Orbit: 948 x 1001 km, 82.9° (Epoch: 03 October)

Event Time Altitude Azimuth Distance (km) Brightness Sun altitude
Rises 14:08:58 0° 189° (S) 3,721 7.0 -16.4°
Reaches altitude 10° 14:11:30 10° 191° (S) 2,773 6.3 -16.9°
Maximum altitude 14:17:50 71° 273° (W) 1,059 4.3 -18.2°
Drops below altitude 10° 14:24:10 10° 356° (N) 2,764 6.6 -19.5°
Sets 14:26:41 0° 358° (N) 3,708 7.3 -20.0°
